DW7590 Weather Reports


time (UTC)temp
C
wind
direction
speed
KPH
gust
KPH
rain 1hr
cm
rain 24hr
cm
rain mn
cm
humidity
%
barometer
mb
20260506114247 8 96 3.2 16.1 0.00 0.00 0.00 81 1015.2
20260506112247 8 78 3.2 14.5 0.00 0.00 0.00 80 1015.0
20260506111247 8 72 3.2 11.3 0.00 0.00 0.00 80 1014.9
20260506110748 8 348 3.2 16.1 0.00 0.00 0.00 80 1014.7
20260506110248 8 38 8.0 16.1 0.00 0.00 0.00 79 1014.6
20260506105747 8 63 8.0 16.1 0.00 0.00 0.00 79 1014.8
20260506105247 8 24 4.8 12.9 0.00 0.00 0.00 79 1015.2
20260506104747 8 62 4.8 11.3 0.00 0.00 0.00 79 1015.6
20260506104249 8 10 3.2 11.3 0.00 0.00 0.00 79 1015.6
20260506103747 8 31 3.2 12.9 0.00 0.00 0.00 79 1015.8
20260506103247 8 59 1.6 12.9 0.00 0.00 0.00 78 1015.6
20260506102749 8 44 3.2 20.9 0.00 0.00 0.00 78 1015.3
20260506102247 8 20 3.2 20.9 0.00 0.00 0.00 78 1015.2
20260506101747 8 55 11.3 11.3 0.00 0.00 0.00 78 1015.3
20260506101247 8 66 3.2 11.3 0.00 0.00 0.00 79 1015.2
20260506100747 8 50 3.2 11.3 0.00 0.00 0.00 78 1015.1
20260506095748 8 15 1.6 14.5 0.00 0.00 0.00 78 1014.9
20260506095247 8 10 3.2 14.5 0.00 0.00 0.00 78 1014.8
20260506094747 8 30 3.2 8.0 0.00 0.00 0.00 78 1014.7
20260506094247 8 41 4.8 8.0 0.00 0.00 0.00 78 1014.5
20260506093247 8 321 3.2 12.9 0.00 0.00 0.00 78 1014.3
20260506092747 8 77 1.6 12.9 0.00 0.00 0.00 77 1014.1
20260506092247 8 93 8.0 12.9 0.00 0.00 0.00 77 1014.0
20260506091748 8 25 1.6 8.0 0.00 0.00 0.00 77 1014.0
20260506091247 8 41 1.6 20.9 0.00 0.00 0.00 77 1014.1
20260506090247 8 29 1.6 11.3 0.00 0.00 0.00 76 1013.9
20260506085747 8 39 4.8 11.3 0.00 0.00 0.00 76 1013.8
20260506085247 8 64 3.2 8.0 0.00 0.00 0.00 76 1013.9
20260506084748 8 25 3.2 8.0 0.00 0.00 0.00 76 1013.9
20260506084247 8 46 3.2 11.3 0.00 0.00 0.00 76 1013.9
20260506083747 8 3 1.6 11.3 0.00 0.00 0.00 75 1013.7
20260506083247 8 337 3.2 11.3 0.00 0.00 0.00 75 1013.3
20260506082747 8 15 3.2 11.3 0.00 0.00 0.00 75 1013.0
20260506082247 8 10 1.6 11.3 0.00 0.00 0.00 75 1013.0
20260506081747 8 10 1.6 12.9 0.00 0.00 0.00 75 1013.0
20260506081247 8 52 3.2 16.1 0.00 0.00 0.00 75 1013.1
20260506080747 8 68 12.9 16.1 0.00 0.00 0.00 75 1013.0
20260506073247 8 26 3.2 14.5 0.00 0.00 0.00 74 1012.3
20260506072747 8 91 4.8 20.9 0.00 0.00 0.00 74 1012.3
20260506072247 8 79 4.8 20.9 0.00 0.00 0.00 73 1012.3
20260506071748 8 95 3.2 19.3 0.00 0.00 0.00 73 1012.3
20260506070247 9 107 1.6 20.9 0.00 0.00 0.00 73 1012.4
20260506062247 9 355 3.2 16.1 0.00 0.00 0.00 73 1012.4
20260506060248 9 86 4.8 19.3 0.00 0.00 0.00 73 1012.4
20260506050747 9 143 8.0 22.5 0.00 0.00 0.00 71 1012.1
20260506050248 9 69 22.5 22.5 0.00 0.00 0.00 71 1012.3
20260506044247 9 89 3.2 20.9 0.00 0.00 0.00 70 1012.4
20260506043748 9 61 14.5 19.3 0.00 0.00 0.00 70 1012.2
20260506043247 9 65 1.6 20.9 0.00 0.00 0.00 70 1012.2
20260506042747 9 62 4.8 20.9 0.00 0.00 0.00 70 1012.2
20260506042247 9 89 9.7 19.3 0.00 0.00 0.00 71 1012.3
20260506041748 9 83 3.2 22.5 0.00 0.00 0.00 72 1012.1
20260506040747 9 61 22.5 25.7 0.00 0.00 0.00 73 1012.1
20260506040247 9 94 8.0 22.5 0.00 0.00 0.00 73 1012.1
20260506035747 9 113 4.8 20.9 0.00 0.00 0.00 74 1012.2
20260506034747 9 61 1.6 22.5 0.00 0.00 0.00 75 1012.0
20260506034248 9 61 11.3 22.5 0.00 0.00 0.00 75 1011.9
20260506033748 9 116 8.0 32.2 0.00 0.00 0.00 76 1011.7
20260506033248 9 51 8.0 32.2 0.00 0.00 0.00 76 1011.5
20260506032748 9 350 8.0 22.5 0.00 0.00 0.00 77 1011.2
20260506032247 9 70 11.3 27.4 0.00 0.00 0.00 77 1011.2
20260506031747 9 69 4.8 27.4 0.00 0.00 0.00 78 1011.4
20260506031247 9 73 3.2 22.5 0.00 0.00 0.00 79 1011.4
20260506030747 9 47 11.3 22.5 0.00 0.00 0.00 79 1011.4
20260506030247 9 41 9.7 27.4 0.00 0.00 0.00 79 1011.5
20260506025747 9 29 19.3 32.2 0.00 0.00 0.00 79 1011.5
20260506025247 9 82 4.8 32.2 0.00 0.00 0.00 79 1011.5
20260506024747 9 68 4.8 19.3 0.00 0.00 0.00 80 1012.0
20260506024247 9 103 1.6 19.3 0.00 0.00 0.00 80 1012.1
20260506023748 9 46 3.2 19.3 0.00 0.00 0.00 81 1012.2
20260506023247 9 39 4.8 19.3 0.00 0.00 0.00 81 1012.1
20260506022747 9 78 1.6 12.9 0.00 0.00 0.00 82 1011.7
20260506022247 9 38 3.2 14.5 0.00 0.00 0.00 82 1011.7
20260506021747 9 74 3.2 16.1 0.00 0.00 0.00 82 1011.7
20260506021248 8 39 3.2 25.7 0.00 0.00 0.00 82 1011.4
20260506020747 8 84 3.2 25.7 0.00 0.00 0.00 82 1011.4
20260506020247 8 88 4.8 27.4 0.00 0.00 0.00 82 1011.3
20260506015247 9 15 12.9 20.9 0.00 0.00 0.00 82 1011.4
20260506014747 9 354 3.2 20.9 0.00 0.00 0.00 82 1011.2
20260506014247 9 35 11.3 20.9 0.00 0.00 0.00 82 1011.0
20260506013747 9 359 1.6 11.3 0.00 0.00 0.00 81 1011.1
20260506013247 9 30 1.6 11.3 0.00 0.00 0.00 81 1011.1
20260506012747 9 355 9.7 12.9 0.00 0.00 0.00 80 1011.1
20260506010747 10 53 4.8 12.9 0.00 0.00 0.00 79 1010.4
20260506005747 9 43 9.7 11.3 0.00 0.00 0.00 79 1010.3
20260506005247 10 340 1.6 19.3 0.00 0.00 0.00 79 1009.9
20260506004747 10 57 3.2 19.3 0.00 0.00 0.00 79 1009.7
20260506004247 10 6 3.2 25.7 0.00 0.00 0.00 79 1009.4
20260506003747 10 82 4.8 25.7 0.00 0.00 0.00 79 1009.5
20260506003247 10 10 1.6 20.9 0.00 0.00 0.00 79 1009.6
20260506002747 10 45 3.2 20.9 0.00 0.00 0.00 78 1009.6
20260506002247 10 25 3.2 22.5 0.00 0.00 0.00 78 1009.5
20260506001748 10 39 3.2 22.5 0.00 0.00 0.00 77 1009.5
20260506000748 10 51 3.2 20.9 0.00 0.00 0.00 77 1009.4
20260506000247 10 20 20.9 20.9 0.00 0.00 0.00 77 1009.3
20260505235247 10 27 4.8 8.0 0.00 0.00 0.00 77 1009.1
20260505234747 10 68 3.2 11.3 0.00 0.00 0.00 76 1009.6
20260505234247 10 61 1.6 12.9 0.00 0.00 0.00 76 1009.8
20260505233747 10 71 4.8 25.7 0.00 0.00 0.00 76 1009.7
20260505233247 10 89 3.2 25.7 0.00 0.00 0.00 75 1009.8
20260505232247 10 39 3.2 22.5 0.00 0.00 0.00 74 1009.7
20260505231747 10 45 3.2 27.4 0.00 0.00 0.00 74 1009.4
20260505231247 10 92 3.2 27.4 0.00 0.00 0.00 74 1009.2
20260505230747 10 95 8.0 25.7 0.00 0.00 0.00 74 1009.0
20260505230247 10 89 11.3 25.7 0.00 0.00 0.00 74 1009.0
20260505225248 10 10 1.6 32.2 0.00 0.00 0.00 73 1009.0
20260505224747 10 45 1.6 32.2 0.00 0.00 0.00 73 1009.1
20260505223747 11 74 11.3 22.5 0.00 0.00 0.00 73 1009.1
20260505223247 11 95 3.2 19.3 0.00 0.00 0.00 73 1009.1
20260505222747 11 41 3.2 19.3 0.00 0.00 0.00 74 1009.0
20260505222247 11 287 1.6 32.2 0.00 0.00 0.00 74 1008.8
20260505221247 11 56 4.8 29.0 0.00 0.00 0.00 74 1008.6
20260505220747 11 10 3.2 29.0 0.00 0.00 0.00 74 1009.0
20260505220247 11 26 11.3 32.2 0.00 0.00 0.00 74 1008.9
20260505215747 11 20 11.3 32.2 0.00 0.00 0.00 73 1008.9
20260505215247 11 51 3.2 27.4 0.00 0.00 0.00 74 1008.2
20260505214747 11 110 4.8 35.4 0.00 0.00 0.00 73 1007.9
20260505213747 11 82 4.8 22.5 0.00 0.00 0.00 74 1008.0
20260505213247 11 49 3.2 29.0 0.00 0.00 0.00 74 1008.0
20260505211747 11 103 3.2 29.0 0.00 0.00 0.00 73 1007.5
20260505211247 12 64 8.0 27.4 0.00 0.00 0.00 73 1007.9
20260505210747 11 61 24.1 27.4 0.00 0.00 0.00 74 1007.5
20260505210247 11 2 9.7 32.2 0.00 0.00 0.00 75 1007.7
20260505205747 11 359 9.7 32.2 0.00 0.00 0.00 74 1008.2
20260505205247 11 68 4.8 22.5 0.00 0.00 0.00 74 1008.6
20260505204747 11 90 4.8 27.4 0.00 0.00 0.00 74 1008.6
20260505204247 11 84 19.3 32.2 0.00 0.00 0.00 75 1008.5
20260505203747 11 74 11.3 32.2 0.00 0.00 0.00 74 1008.2
20260505203247 11 72 9.7 25.7 0.00 0.00 0.00 74 1008.0
20260505202747 12 15 8.0 27.4 0.00 0.00 0.00 74 1007.8
20260505201747 12 104 3.2 27.4 0.00 0.00 0.00 75 1007.6
20260505201247 12 101 3.2 29.0 0.00 0.00 0.00 75 1007.7
20260505200747 12 10 22.5 29.0 0.00 0.00 0.00 74 1007.5
20260505195747 12 34 20.9 32.2 0.00 0.00 0.00 75 1007.5
20260505195247 11 58 14.5 33.8 0.00 0.00 0.00 75 1007.5
20260505194747 11 73 3.2 33.8 0.00 0.00 0.00 76 1007.5
20260505194247 11 40 4.8 29.0 0.00 0.00 0.00 76 1007.5
20260505193747 11 54 8.0 27.4 0.00 0.00 0.00 78 1007.5
20260505193247 11 33 3.2 25.7 0.00 0.00 0.00 78 1007.4
20260505192748 11 325 1.6 27.4 0.00 0.00 0.00 79 1007.5
20260505192247 11 84 19.3 29.0 0.00 0.00 0.00 80 1007.3
20260505191748 11 20 9.7 29.0 0.00 0.00 0.00 79 1007.2
20260505191247 12 38 22.5 29.0 0.00 0.00 0.00 79 1007.4
20260505190747 12 327 17.7 27.4 0.00 0.00 0.00 80 1007.5
20260505190247 12 346 11.3 35.4 0.00 0.00 0.00 80 1007.3
20260505185747 12 10 27.4 35.4 0.00 0.00 0.00 80 1007.3
20260505185247 12 43 11.3 29.0 0.00 0.00 0.00 79 1007.2
20260505184747 12 50 20.9 29.0 0.00 0.00 0.00 79 1007.1
20260505184247 12 85 3.2 14.5 0.00 0.00 0.00 79 1007.1
20260505183747 12 38 3.2 19.3 0.00 0.00 0.00 79 1007.1
20260505183248 12 61 3.2 19.3 0.00 0.00 0.00 79 1007.0
20260505182247 12 330 3.2 29.0 0.00 0.00 0.00 79 1006.8
20260505181747 12 39 4.8 32.2 0.00 0.00 0.00 79 1006.6
20260505181247 12 41 3.2 35.4 0.00 0.00 0.00 79 1006.6
20260505180748 12 53 4.8 37.0 0.00 0.00 0.00 79 1006.6
20260505180247 12 29 19.3 37.0 0.00 0.00 0.00 78 1006.5
20260505175747 12 10 1.6 33.8 0.00 0.00 0.00 79 1006.3
20260505175247 12 10 9.7 33.8 0.00 0.00 0.00 79 1006.2
20260505174747 12 126 4.8 32.2 0.00 0.00 0.00 79 1006.0
20260505174247 12 43 3.2 37.0 0.00 0.00 0.00 79 1005.9
20260505173748 13 26 1.6 37.0 0.00 0.00 0.00 80 1005.9
20260505173247 12 83 8.0 33.8 0.00 0.00 0.00 80 1005.9
20260505172748 13 61 4.8 29.0 0.00 0.00 0.00 80 1006.0
20260505172247 12 358 1.6 32.2 0.00 0.00 0.00 81 1005.7
20260505171747 13 46 8.0 32.2 0.00 0.00 0.00 80 1005.8
20260505171247 13 56 4.8 35.4 0.00 0.00 0.00 81 1005.9
20260505170747 13 300 3.2 35.4 0.00 0.00 0.00 80 1005.8
20260505170247 13 330 3.2 22.5 0.00 0.00 0.00 81 1005.6
20260505165247 13 326 4.8 19.3 0.00 0.00 0.00 81 1005.4
20260505164747 13 93 8.0 33.8 0.00 0.00 0.00 82 1005.2
20260505164248 13 40 17.7 33.8 0.00 0.00 0.00 82 1005.0
20260505163747 13 30 14.5 33.8 0.00 0.00 0.00 82 1004.8
20260505163247 13 68 3.2 33.8 0.00 0.00 0.00 82 1004.7
20260505162747 13 44 19.3 35.4 0.00 0.00 0.00 82 1004.5
20260505162248 13 53 3.2 35.4 0.00 0.00 0.00 82 1004.3
20260505161748 13 76 9.7 32.2 0.00 0.00 0.00 82 1004.4
20260505160747 13 315 8.0 35.4 0.00 0.00 0.00 82 1003.8
20260505160247 14 2 19.3 35.4 0.00 0.00 0.00 82 1003.7
20260505153247 15 20 9.7 29.0 0.00 0.00 0.00 83 1003.2
20260505152747 16 5 11.3 37.0 0.00 0.00 0.00 82 1003.2
20260505152247 16 47 29.0 37.0 0.00 0.00 0.00 82 1003.1
20260505151247 16 36 9.7 46.7 0.00 0.00 0.00 81 1002.8
20260505150747 17 20 17.7 33.8 0.00 0.00 0.00 79 1002.7
20260505150247 18 61 19.3 27.4 0.00 0.00 0.00 79 1002.6
20260505140247 19 118 4.8 14.5 0.00 0.00 0.00 85 1001.4
20260505130247 18 125 1.6 19.3 0.00 0.00 0.00 87 1001.1
20260505124747 18 65 4.8 19.3 0.00 0.00 0.00 86 1001.1
20260505124248 18 116 4.8 19.3 0.00 0.00 0.00 86 1001.0
20260505123748 18 82 4.8 19.3 0.00 0.00 0.00 86 1001.0
20260505123247 18 76 3.2 19.3 0.00 0.00 0.00 85 1001.0
20260505122247 18 94 3.2 16.1 0.00 0.00 0.00 85 1000.8
20260505121747 18 96 3.2 16.1 0.00 0.00 0.00 84 1000.8
20260505121247 18 114 12.9 16.1 0.00 0.00 0.00 83 1000.7
20260505120247 19 80 4.8 14.5 0.00 0.00 0.00 81 1000.6
20260505115747 20 84 4.8 8.0 0.00 0.00 0.00 80 1000.5
20260505114747 20 103 9.7 11.3 0.00 0.00 0.00 78 1000.5